Alamogordo, NM

2:09 PM MST on November 14, 2019 (GMT -0700)
Alamogordo-White Sands Regional

Weather History for KALM - September, 2019

Change the Weather History Date:

Tuesday, September 3, 2019

  Actual Average Record
Temperature  
Mean Temperature 88 °F -  
Max Temperature 95 °F 89 °F 101 °F (1948)
Min Temperature 80 °F 62 °F 51 °F (1961)
Cooling Degree Days 22    
Growing Degree Days 38 (Base 50)    
Moisture  
Dew Point 45 °F    
Average Humidity 23    
Maximum Humidity 28    
Minimum Humidity 19    
Precipitation  
Precipitation 0.00 in - - ()
Sea Level Pressure  
Sea Level Pressure 30.05 in    
Wind  
Wind Speed 6 mph ()    
Max Wind Speed 16 mph    
Max Gust Speed 22 mph    
Visibility 9.9 miles    
Events      
Averages and records for this station are not official NWS values.
T = Trace of Precipitation, MM = Missing Value Source: Averaged Metar Reports

Daily Weather History Graph

Daily Weather History Graph

Search for Another Location

Airport or City:

Astronomy

Sep. 03, 2019 Rise Set
Actual Time 6:39 AM MDT 7:26 PM MDT
Civil Twilight 6:14 AM MDT 7:51 PM MDT
Nautical Twilight 5:45 AM MDT 8:20 PM MDT
Astronomical Twilight 5:14 AM MDT 8:51 PM MDT
Moon 11:20 AM MDT (9/3) 10:41 PM MDT (9/3)
Length of Visible Light 13h 36m
Length of Day
12h 46m
Waxing Crescent, 25% of the Moon is Illuminated
Sep 3
Waxing Crescent
Sep 5
First Quarter
Sep 13
Full
Sep 21
Last Quarter
Sep 28
New

Hourly Weather History & Observations

Time (MDT) Temp. Dew Point Humidity Pressure Visibility Wind Dir Wind Speed Gust Speed Precip Events Conditions
12:15 AM - - N/A% - - North - - N/A   Unknown
12:35 AM - - N/A% - - North - - N/A   Unknown
12:55 AM - - N/A% - - North - - N/A   Unknown
1:15 AM - - N/A% - - North - - N/A   Unknown
1:35 AM - - N/A% - - North - - N/A   Unknown
1:55 AM - - N/A% - - North - - N/A   Unknown
2:15 AM - - N/A% - - North - - N/A   Unknown
2:35 AM - - N/A% - - North - - N/A   Unknown
2:55 AM - - N/A% - - North - - N/A   Unknown
3:15 AM - - N/A% - - North - - N/A   Unknown
3:35 AM - - N/A% - - North - - N/A   Unknown
3:55 AM - - N/A% - - North - - N/A   Unknown
4:15 AM - - N/A% - - North - - N/A   Unknown
4:35 AM - - N/A% - - North - - N/A   Unknown
4:55 AM - - N/A% - - North - - N/A   Unknown
5:15 AM - - N/A% - - North - - N/A   Unknown
5:35 AM - - N/A% - - North - - N/A   Unknown
5:55 AM - - N/A% - - North - - N/A   Unknown
6:15 AM - - N/A% - - North - - N/A   Unknown
6:35 AM - - N/A% - - North - - N/A   Unknown
6:55 AM - - N/A% - - North - - N/A   Unknown
7:15 AM - - N/A% - - North - - N/A   Unknown
7:35 AM - - N/A% - - North - - N/A   Unknown
7:55 AM - - N/A% - - North - - N/A   Unknown
8:15 AM - - N/A% - - North - - N/A   Unknown
8:35 AM - - N/A% - - North - - N/A   Unknown
8:55 AM - - N/A% - - North - - N/A   Unknown
9:15 AM - - N/A% - - North - - N/A   Unknown
9:35 AM - - N/A% - - North - - N/A   Unknown
9:55 AM - - N/A% - - North - - N/A   Unknown
10:15 AM - - N/A% - - North - - N/A   Unknown
10:35 AM - - N/A% - - North - - N/A   Unknown
10:55 AM - - N/A% - - North - - N/A   Unknown
11:15 AM - - N/A% - - North - - N/A   Unknown
11:35 AM - - N/A% - - North - - N/A   Unknown
11:55 AM - - N/A% - - North - - N/A   Unknown
12:15 PM - - N/A% - - North - - N/A   Unknown
12:35 PM - - N/A% - - North - - N/A   Unknown
12:55 PM - - N/A% - - North - - N/A   Unknown
1:15 PM - - N/A% - - North - - N/A   Unknown
1:35 PM - - N/A% - - North - - N/A   Unknown
1:55 PM - - N/A% - - North - - N/A   Unknown
2:15 PM - - N/A% - - North - - N/A   Unknown
2:35 PM 95.0 °F 46.4 °F 19% 30.07 in - South 5.8 mph - N/A   Unknown
2:55 PM 93.2 °F 44.6 °F 19% 30.06 in 10.0 mi WSW 8.1 mph - N/A   Clear
3:15 PM 93.2 °F 44.6 °F 19% 30.06 in 10.0 mi SSE 4.6 mph - N/A   Clear
3:35 PM 93.2 °F 44.6 °F 19% 30.05 in 10.0 mi West 5.8 mph - N/A   Clear
3:55 PM 91.4 °F 44.6 °F 20% 30.04 in 10.0 mi Calm Calm - N/A   Clear
4:15 PM 93.2 °F 46.4 °F 20% 30.03 in 10.0 mi South 6.9 mph - N/A   Clear
4:35 PM 93.2 °F 44.6 °F 19% 30.03 in 10.0 mi Calm Calm - N/A   Clear
4:55 PM 93.2 °F 44.6 °F 19% 30.02 in 10.0 mi SSW 8.1 mph - N/A   Clear
5:15 PM 93.2 °F 44.6 °F 19% 30.02 in 10.0 mi SE 5.8 mph - N/A   Clear
5:35 PM 93.2 °F 44.6 °F 19% 30.02 in 10.0 mi South 8.1 mph - N/A   Clear
5:55 PM 93.2 °F 44.6 °F 19% 30.02 in 10.0 mi South 8.1 mph - N/A   Clear
6:15 PM 93.2 °F 46.4 °F 20% 30.02 in 10.0 mi South 4.6 mph - N/A   Clear
6:35 PM 91.4 °F 46.4 °F 21% 30.02 in 10.0 mi SSW 6.9 mph - N/A   Clear
6:55 PM 89.6 °F 48.2 °F 24% 30.02 in 10.0 mi South 3.5 mph - N/A   Clear
7:15 PM 89.6 °F 46.4 °F 22% 30.02 in 10.0 mi SSW 4.6 mph - N/A   Clear
7:35 PM 86.0 °F 46.4 °F 25% 30.03 in 10.0 mi SSW 4.6 mph - N/A   Clear
7:55 PM 84.2 °F 46.4 °F 27% 30.03 in 10.0 mi SSW 3.5 mph - N/A   Clear
8:15 PM 84.2 °F 46.4 °F 27% 30.04 in 10.0 mi South 4.6 mph - N/A   Clear
8:35 PM 82.4 °F 46.4 °F 28% 30.05 in 10.0 mi SW 8.1 mph - N/A   Clear
8:55 PM 84.2 °F 46.4 °F 27% 30.05 in 10.0 mi SW 9.2 mph - N/A   Clear
9:15 PM 82.4 °F 46.4 °F 28% 30.06 in 10.0 mi NE 9.2 mph - N/A   Clear
9:35 PM 84.2 °F 44.6 °F 25% 30.07 in 10.0 mi East 6.9 mph - N/A   Clear
9:55 PM 80.6 °F 44.6 °F 28% 30.08 in 10.0 mi West 4.6 mph - N/A   Clear
10:15 PM 84.2 °F 44.6 °F 25% 30.09 in 10.0 mi SSW 10.4 mph - N/A   Clear
10:35 PM 82.4 °F 44.6 °F 26% 30.10 in 7.0 mi SSW 12.7 mph - N/A   Clear
10:55 PM 82.4 °F 44.6 °F 26% 30.10 in 10.0 mi South 6.9 mph - N/A   Clear
11:15 PM 82.4 °F 42.8 °F 25% 30.11 in 10.0 mi South 13.8 mph 19.6 mph N/A   Clear
11:35 PM 82.4 °F 42.8 °F 25% 30.11 in 10.0 mi SSE 16.1 mph 21.9 mph N/A   Clear
11:55 PM 82.4 °F 41.0 °F 23% 30.12 in 10.0 mi SSE 13.8 mph - N/A   Clear